Hot Springs, VA

7:09 PM EDT on March 27, 2017 (GMT -0400)
Ingalls

Weather History for KHSP - October, 2012

Change the Weather History Date:

Sunday, October 7, 2012

  Actual Average Record
Temperature  
Mean Temperature 38 °F -  
Max Temperature 42 °F 59 °F 77 °F (2007)
Min Temperature 33 °F 45 °F 32 °F (2001)
Degree Days  
Heating Degree Days 28    
Moisture  
Dew Point 37 °F    
Average Humidity 95    
Maximum Humidity 100    
Minimum Humidity 70    
Precipitation  
Precipitation 0.26 in - - ()
Sea Level Pressure  
Sea Level Pressure 30.10 in    
Wind  
Wind Speed 7 mph (NW)    
Max Wind Speed 13 mph    
Max Gust Speed 21 mph    
Visibility 5 miles    
Events Fog , Rain , Snow    
Averages and records for this station are not official NWS values.
T = Trace of Precipitation, MM = Missing Value Source: NWS Daily Summary

Daily Weather History Graph

Daily Weather History Graph

Search for Another Location

Airport or City:

Trip Planner

Search our weather history database for the weather conditions in past years. The results will help you decide how hot, cold, wet, or windy it might be!

Date:

Astronomy

Oct. 07, 2012 Rise Set
Actual Time 7:20 AM EDT 6:52 PM EDT
Civil Twilight 6:54 AM EDT 7:18 PM EDT
Nautical Twilight 6:24 AM EDT 7:49 PM EDT
Astronomical Twilight 5:53 AM EDT 8:19 PM EDT
Moon No Moon Rise 1:52 PM EDT (10/7)
Length of Visible Light 12h 24m
Length of Day
11h 31m
Waning Gibbous, 56% of the Moon is Illuminated
Oct 7
Waning Gibbous
Oct 8
Last Quarter
Oct 15
New
Oct 21
First Quarter
Oct 29
Full

Hourly Weather History & Observations

Time (EDT) Temp. Windchill Dew Point Humidity Pressure Visibility Wind Dir Wind Speed Gust Speed Precip Events Conditions
12:18 AM 39.2 °F 32.5 °F 35.6 °F 87% 30.08 in 10.0 mi NW 10.4 mph - N/A   Mostly Cloudy
12:38 AM 41.0 °F 35.8 °F 35.6 °F 81% 30.08 in 10.0 mi WNW 8.1 mph - N/A   Overcast
12:57 AM 41.0 °F 35.8 °F 35.6 °F 81% 30.07 in 10.0 mi WNW 8.1 mph - N/A   Overcast
1:19 AM 41.0 °F 35.2 °F 35.6 °F 81% 30.06 in 10.0 mi NW 9.2 mph - N/A   Mostly Cloudy
1:37 AM 41.0 °F 35.2 °F 35.6 °F 81% 30.08 in 10.0 mi WNW 9.2 mph - N/A   Overcast
1:59 AM 41.0 °F 35.8 °F 35.6 °F 81% 30.10 in 10.0 mi WNW 8.1 mph - N/A   Overcast
2:18 AM 41.0 °F 35.8 °F 35.6 °F 81% 30.09 in 10.0 mi WNW 8.1 mph - N/A   Overcast
2:37 AM 41.0 °F 37.1 °F 35.6 °F 81% 30.08 in 10.0 mi NW 5.8 mph - N/A   Overcast
2:57 AM 42.8 °F 38.6 °F 33.8 °F 70% 30.08 in 10.0 mi NW 6.9 mph - N/A   Overcast
3:18 AM 42.8 °F 38.6 °F 33.8 °F 70% 30.08 in 10.0 mi NW 6.9 mph - N/A   Overcast
3:38 AM 42.8 °F 41.1 °F 33.8 °F 70% 30.07 in 10.0 mi NNW 3.5 mph - N/A   Overcast
3:58 AM 42.8 °F 41.1 °F 33.8 °F 70% 30.06 in 10.0 mi NNW 3.5 mph - N/A   Overcast
4:18 AM 42.8 °F 41.1 °F 35.6 °F 76% 30.07 in 10.0 mi NW 3.5 mph - N/A   Light Drizzle
4:38 AM 41.0 °F 39.0 °F 35.6 °F 81% 30.08 in 10.0 mi West 3.5 mph - N/A Rain Rain
4:58 AM 39.2 °F - 35.6 °F 87% 30.08 in 10.0 mi Calm Calm - 0.02 in Rain Rain
5:18 AM 39.2 °F - 37.4 °F 93% 30.06 in 10.0 mi Calm Calm - 0.02 in Rain Rain
5:40 AM 39.2 °F 35.9 °F 37.4 °F 93% 30.09 in 10.0 mi WNW 4.6 mph - 0.04 in Rain Light Rain
5:58 AM 39.2 °F - 37.4 °F 93% 30.08 in 10.0 mi Calm Calm - N/A   Overcast
6:18 AM 39.2 °F - 37.4 °F 93% 30.08 in 10.0 mi Calm Calm - N/A   Drizzle
6:37 AM 39.2 °F - 37.4 °F 93% 30.09 in 10.0 mi Calm Calm - N/A   Light Drizzle
6:58 AM 39.2 °F - 37.4 °F 93% 30.09 in 7.0 mi Calm Calm - N/A   Drizzle
7:18 AM 39.2 °F 33.6 °F 37.4 °F 93% 30.07 in 10.0 mi East 8.1 mph - 0.02 in Rain Rain
7:37 AM 39.2 °F 32.0 °F 37.4 °F 93% 30.05 in 0.2 mi ESE 11.5 mph - 0.05 in Rain Rain
7:57 AM 37.4 °F 30.8 °F 37.4 °F 100% 30.07 in 0.2 mi ENE 9.2 mph - N/A Rain Rain
8:17 AM 37.4 °F 33.8 °F 37.4 °F 100% 30.10 in 0.5 mi ENE 4.6 mph - N/A Rain Light Rain
8:37 AM 37.4 °F 32.8 °F 37.4 °F 100% - 1.0 mi East 5.8 mph - N/A   Overcast
8:58 AM 37.4 °F 33.8 °F 37.4 °F 100% 30.09 in 0.2 mi East 4.6 mph - 0.01 in Rain Light Rain
9:17 AM 37.4 °F 32.1 °F 37.4 °F 100% 30.10 in 0.2 mi East 6.9 mph - 0.01 in   Drizzle
9:39 AM 37.4 °F 32.1 °F - N/A% 30.10 in 0.2 mi East 6.9 mph - 0.01 in   Drizzle
10:00 AM 37.4 °F 31.4 °F 37.4 °F 100% 30.10 in 0.2 mi East 8.1 mph - N/A Snow Light Snow
10:18 AM 37.4 °F 31.4 °F 37.4 °F 100% 30.10 in 0.2 mi East 8.1 mph - N/A Snow Light Snow
10:39 AM 37.4 °F 32.8 °F 37.4 °F 100% 30.10 in 0.2 mi East 5.8 mph - N/A Snow Light Snow
10:58 AM 37.4 °F 34.9 °F 37.4 °F 100% 30.12 in 0.2 mi East 3.5 mph - N/A Snow Light Snow
11:20 AM 37.4 °F 32.8 °F 37.4 °F 100% 30.10 in 0.2 mi ENE 5.8 mph - N/A Rain Rain
11:37 AM 37.4 °F 32.8 °F 37.4 °F 100% 30.10 in 0.2 mi East 5.8 mph - N/A   Overcast
11:57 AM 37.4 °F 32.1 °F 37.4 °F 100% 30.09 in 0.2 mi ESE 6.9 mph - N/A   Drizzle
12:17 PM 37.4 °F 33.8 °F 37.4 °F 100% 30.09 in 0.2 mi East 4.6 mph - N/A Rain Rain
12:38 PM 39.2 °F - 39.2 °F 100% 30.09 in 0.2 mi Calm Calm - N/A   Heavy Drizzle
12:58 PM 39.2 °F - 39.2 °F 100% 30.09 in 0.2 mi Calm Calm - 0.01 in   Drizzle
1:18 PM 39.2 °F 35.9 °F 39.2 °F 100% 30.08 in 0.2 mi ESE 4.6 mph - 0.02 in Rain Light Rain
1:37 PM 39.2 °F 37.0 °F 39.2 °F 100% 30.07 in 0.2 mi East 3.5 mph - 0.02 in   Drizzle
1:57 PM 39.2 °F - 39.2 °F 100% 30.06 in 0.2 mi Calm Calm - N/A Rain Rain
2:18 PM 39.2 °F 35.0 °F 39.2 °F 100% 30.07 in 0.2 mi NW 5.8 mph - N/A   Light Drizzle
2:38 PM 39.2 °F 35.0 °F 39.2 °F 100% 30.07 in 0.2 mi WNW 5.8 mph - 0.02 in   Drizzle
2:58 PM 39.2 °F 34.2 °F 39.2 °F 100% 30.07 in 0.2 mi West 6.9 mph - 0.01 in   Drizzle
3:38 PM 39.2 °F 32.0 °F 39.2 °F 100% 30.07 in 0.2 mi West 11.5 mph - 0.04 in Rain Rain
3:59 PM 39.2 °F 33.0 °F 39.2 °F 100% 30.07 in 0.2 mi West 9.2 mph - N/A   Drizzle
4:17 PM 39.2 °F 32.5 °F 39.2 °F 100% 30.08 in 0.2 mi West 10.4 mph 16.1 mph N/A Rain Rain
4:38 PM 39.2 °F 32.5 °F 39.2 °F 100% 30.08 in 0.2 mi West 10.4 mph 17.3 mph 0.03 in Rain Rain
4:58 PM 39.2 °F 31.6 °F 39.2 °F 100% 30.09 in 0.2 mi West 12.7 mph - 0.01 in Rain Light Rain
5:19 PM 39.2 °F 31.6 °F 39.2 °F 100% 30.09 in 0.2 mi WNW 12.7 mph 20.7 mph 0.01 in Rain Light Rain
5:37 PM 39.2 °F 31.6 °F 39.2 °F 100% 30.09 in 0.2 mi WNW 12.7 mph 16.1 mph 0.01 in   Unknown
5:57 PM 39.2 °F 31.6 °F 39.2 °F 100% 30.09 in 0.2 mi WNW 12.7 mph 16.1 mph N/A   Unknown
6:18 PM 39.2 °F 33.6 °F 39.2 °F 100% 30.10 in 0.2 mi WNW 8.1 mph - N/A Fog Fog
6:38 PM 37.4 °F 29.3 °F 37.4 °F 100% 30.11 in 3.0 mi WNW 12.7 mph 18.4 mph N/A   Overcast
6:57 PM 37.4 °F 30.8 °F 37.4 °F 100% 30.10 in 10.0 mi West 9.2 mph - N/A   Unknown
7:18 PM 37.4 °F 31.4 °F 37.4 °F 100% 30.11 in 10.0 mi WNW 8.1 mph - N/A   Mostly Cloudy
7:37 PM 35.6 °F 28.0 °F 35.6 °F 100% 30.11 in 10.0 mi NW 10.4 mph 16.1 mph N/A   Unknown
7:58 PM 35.6 °F 29.2 °F 35.6 °F 100% 30.11 in 7.0 mi WNW 8.1 mph - N/A   Overcast
8:18 PM 35.6 °F 30.7 °F 35.6 °F 100% 30.11 in 3.0 mi WNW 5.8 mph - N/A   Mostly Cloudy
8:38 PM 35.6 °F 29.2 °F 35.6 °F 100% 30.12 in 10.0 mi WNW 8.1 mph 16.1 mph N/A   Scattered Clouds
8:58 PM 35.6 °F 29.2 °F 35.6 °F 100% 30.13 in 10.0 mi NW 8.1 mph - N/A   Scattered Clouds
9:18 PM 35.6 °F 30.7 °F 35.6 °F 100% 30.14 in 10.0 mi NW 5.8 mph - N/A   Scattered Clouds
9:37 PM 35.6 °F 29.2 °F 35.6 °F 100% 30.15 in 10.0 mi NW 8.1 mph - N/A   Mostly Cloudy
9:57 PM 33.8 °F 27.0 °F 33.8 °F 100% 30.15 in 10.0 mi NW 8.1 mph - N/A   Scattered Clouds
10:18 PM 33.8 °F 27.7 °F 33.8 °F 100% 30.15 in 10.0 mi WNW 6.9 mph - N/A   Clear
10:38 PM 33.8 °F 26.4 °F 33.8 °F 100% 30.15 in 10.0 mi WNW 9.2 mph - N/A   Clear
10:58 PM 33.8 °F 25.3 °F 33.8 °F 100% 30.16 in 10.0 mi WNW 11.5 mph - N/A   Scattered Clouds
11:17 PM 33.8 °F 26.4 °F 33.8 °F 100% 30.17 in 10.0 mi WNW 9.2 mph - N/A   Scattered Clouds
11:38 PM 33.8 °F 26.4 °F 33.8 °F 100% 30.17 in 10.0 mi WNW 9.2 mph - N/A   Scattered Clouds
11:58 PM 33.8 °F 24.8 °F 33.8 °F 100% 30.16 in 10.0 mi WNW 12.7 mph - N/A   Clear